Princeton, MN

12:25 PM CST on November 21, 2019 (GMT -0600)
Princeton Municipal

Weather History for KPNM - August, 2019

Change the Weather History Date:

Monday, August 26, 2019

  Actual Average Record
Temperature  
Mean Temperature 66 °F -  
Max Temperature 71 °F 76 °F 95 °F (2013)
Min Temperature 60 °F 54 °F 42 °F (2015)
Growing Degree Days 16 (Base 50)    
Moisture  
Dew Point 61 °F    
Average Humidity 85    
Maximum Humidity 100    
Minimum Humidity 73    
Precipitation  
Precipitation 0.00 in - - ()
Sea Level Pressure  
Sea Level Pressure 29.76 in    
Wind  
Wind Speed 6 mph (SSE)    
Max Wind Speed 10 mph    
Max Gust Speed 16 mph    
Visibility 9 miles    
Events Rain    
Averages and records for this station are not official NWS values.
T = Trace of Precipitation, MM = Missing Value Source: NWS Daily Summary

Daily Weather History Graph

Daily Weather History Graph

Search for Another Location

Airport or City:

Astronomy

Aug. 26, 2019 Rise Set
Actual Time 6:28 AM CDT 8:03 PM CDT
Civil Twilight 5:56 AM CDT 8:34 PM CDT
Nautical Twilight 5:19 AM CDT 9:12 PM CDT
Astronomical Twilight 4:38 AM CDT 9:52 PM CDT
Moon 1:43 AM CDT (8/26) 5:38 PM CDT (8/26)
Length of Visible Light 14h 37m
Length of Day
13h 35m
Waning Crescent, 19% of the Moon is Illuminated
Aug 26
Waning Crescent
Aug 30
New
Sep 5
First Quarter
Sep 13
Full
Sep 21
Last Quarter

Hourly Weather History & Observations

Time (CDT) Temp. Dew Point Humidity Pressure Visibility Wind Dir Wind Speed Gust Speed Precip Events Conditions
12:15 AM 64.4 °F 60.8 °F 88% 29.89 in 10.0 mi SE 8.1 mph - N/A   Overcast
12:38 AM 64.4 °F 60.8 °F 88% 29.88 in 10.0 mi ESE 5.8 mph - N/A   Overcast
12:56 AM 64.4 °F 60.8 °F 88% 29.88 in 10.0 mi SE 5.8 mph - N/A   Overcast
1:15 AM 64.4 °F 60.8 °F 88% 29.87 in 10.0 mi SE 5.8 mph - N/A   Overcast
1:16 AM 64.4 °F 60.8 °F 88% 29.87 in 10.0 mi SE 6.9 mph - N/A   Overcast
1:35 AM 64.4 °F 60.8 °F 88% 29.87 in 10.0 mi SE 4.6 mph - N/A   Overcast
1:59 AM 64.4 °F 60.8 °F 88% 29.87 in 10.0 mi SE 4.6 mph - N/A   Overcast
2:35 AM 64.4 °F 59.0 °F 83% 29.86 in 10.0 mi SE 5.8 mph - N/A   Overcast
2:36 AM 64.4 °F 59.0 °F 83% 29.86 in 10.0 mi SE 5.8 mph - N/A   Overcast
2:55 AM 64.4 °F 59.0 °F 83% 29.85 in 10.0 mi SE 4.6 mph - N/A   Overcast
3:15 AM 64.4 °F 59.0 °F 83% 29.84 in 10.0 mi SE 3.5 mph - N/A   Overcast
3:38 AM 64.4 °F 59.0 °F 83% 29.84 in 10.0 mi SE 5.8 mph - N/A   Overcast
3:56 AM 64.4 °F 59.0 °F 83% 29.84 in 10.0 mi ESE 4.6 mph - N/A   Overcast
4:15 AM 64.4 °F 59.0 °F 83% 29.85 in 10.0 mi SE 3.5 mph - N/A   Overcast
4:16 AM 64.4 °F 59.0 °F 83% 29.85 in 10.0 mi SE 4.6 mph - N/A   Overcast
4:39 AM 64.4 °F 59.0 °F 83% 29.83 in 10.0 mi ESE 3.5 mph - N/A   Overcast
5:15 AM 64.4 °F 57.2 °F 77% 29.83 in 10.0 mi SE 3.5 mph - N/A   Overcast
5:35 AM 64.4 °F 57.2 °F 77% 29.82 in 10.0 mi ESE 5.8 mph - N/A   Overcast
5:36 AM 64.4 °F 57.2 °F 77% 29.82 in 10.0 mi ESE 4.6 mph - N/A   Overcast
5:55 AM 64.4 °F 57.2 °F 77% 29.81 in 10.0 mi SE 4.6 mph - N/A   Overcast
6:00 AM 64.4 °F 57.2 °F 77% 29.81 in 10.0 mi SE 5.8 mph - N/A   Overcast
6:18 AM 64.4 °F 57.2 °F 77% 29.82 in 10.0 mi SE 5.8 mph - N/A   Overcast
6:36 AM 64.4 °F 57.2 °F 77% 29.82 in 10.0 mi SSE 5.8 mph - N/A   Overcast
6:55 AM 64.4 °F 57.2 °F 77% 29.82 in 10.0 mi SE 6.9 mph - N/A   Overcast
7:15 AM 64.4 °F 57.2 °F 77% 29.81 in 10.0 mi SE 8.1 mph - N/A   Overcast
7:39 AM 64.4 °F 57.2 °F 77% 29.81 in 10.0 mi SE 5.8 mph - N/A   Overcast
7:57 AM 64.4 °F 59.0 °F 83% 29.80 in 10.0 mi SE 8.1 mph - N/A   Overcast
8:15 AM 64.4 °F 59.0 °F 83% 29.79 in 10.0 mi SE 9.2 mph - N/A   Mostly Cloudy
8:16 AM 64.4 °F 59.0 °F 83% 29.79 in 10.0 mi SE 9.2 mph - N/A   Mostly Cloudy
8:35 AM 66.2 °F 59.0 °F 78% 29.78 in 10.0 mi SE 8.1 mph - N/A   Mostly Cloudy
8:36 AM 66.2 °F 59.0 °F 78% 29.78 in 10.0 mi SE 9.2 mph - N/A   Mostly Cloudy
8:55 AM 66.2 °F 60.8 °F 83% 29.78 in 10.0 mi SSE 6.9 mph - N/A   Mostly Cloudy
9:18 AM 68.0 °F 60.8 °F 78% 29.77 in 10.0 mi SE 10.4 mph - N/A   Scattered Clouds
9:36 AM 69.8 °F 60.8 °F 73% 29.76 in 10.0 mi SSE 8.1 mph - N/A   Scattered Clouds
9:55 AM 69.8 °F 62.6 °F 78% 29.76 in 10.0 mi SSE 9.2 mph - N/A   Mostly Cloudy
9:56 AM 69.8 °F 60.8 °F 73% 29.76 in 10.0 mi SSE 9.2 mph - N/A   Mostly Cloudy
10:15 AM 69.8 °F 60.8 °F 73% 29.76 in 10.0 mi SE 9.2 mph - N/A   Mostly Cloudy
10:16 AM 69.8 °F 60.8 °F 73% 29.76 in 10.0 mi SE 9.2 mph - N/A   Mostly Cloudy
10:39 AM 69.8 °F 62.6 °F 78% 29.76 in 10.0 mi SSE 8.1 mph - N/A   Mostly Cloudy
10:57 AM 68.0 °F 60.8 °F 78% 29.76 in 10.0 mi SE 8.1 mph - N/A   Overcast
11:15 AM 68.0 °F 60.8 °F 78% 29.76 in 10.0 mi SE 6.9 mph - N/A   Overcast
11:35 AM 68.0 °F 62.6 °F 83% 29.76 in 10.0 mi SSE 4.6 mph - N/A Rain Rain
11:36 AM 68.0 °F 62.6 °F 83% 29.76 in 10.0 mi SSE 3.5 mph - N/A Rain Rain
11:55 AM 66.2 °F 62.6 °F 88% 29.75 in 5.0 mi South 3.5 mph - N/A Rain Light Rain
11:59 AM 66.2 °F 62.6 °F 88% 29.75 in 5.0 mi South 3.5 mph - N/A Rain Light Rain
12:17 PM 66.2 °F 62.6 °F 88% 29.75 in 1.8 mi Calm Calm - N/A Rain Heavy Rain
12:35 PM 64.4 °F 62.6 °F 94% 29.75 in 4.0 mi Calm Calm - N/A Rain Rain
12:36 PM 64.4 °F 62.6 °F 94% 29.75 in 4.0 mi Calm Calm - N/A Rain Rain
12:55 PM 64.4 °F 62.6 °F 94% 29.75 in 2.5 mi Calm Calm - N/A Rain Heavy Rain
1:15 PM 64.4 °F 62.6 °F 94% 29.75 in 1.8 mi Calm Calm - N/A Rain Heavy Rain
1:38 PM 64.4 °F 64.4 °F 100% 29.75 in 1.8 mi Calm Calm - N/A Rain Heavy Rain
1:56 PM 64.4 °F 64.4 °F 100% 29.74 in 2.5 mi SSW 3.5 mph - N/A Rain Rain
2:15 PM 64.4 °F 64.4 °F 100% 29.75 in 4.0 mi South 3.5 mph - N/A Rain Rain
2:16 PM 64.4 °F 64.4 °F 100% 29.75 in 4.0 mi South 3.5 mph - N/A Rain Rain
2:35 PM 66.2 °F 64.4 °F 94% 29.74 in 4.0 mi SSE 3.5 mph - N/A Rain Rain
2:59 PM 66.2 °F 64.4 °F 94% 29.73 in 3.0 mi SSE 3.5 mph - N/A Rain Rain
3:17 PM 66.2 °F 64.4 °F 94% 29.72 in 3.0 mi Calm Calm - N/A Rain Rain
3:35 PM 66.2 °F 64.4 °F 94% 29.71 in 10.0 mi Calm Calm - N/A Rain Light Rain
3:36 PM 66.2 °F 64.4 °F 94% 29.71 in 10.0 mi Calm Calm - N/A Rain Light Rain
3:55 PM 66.2 °F 64.4 °F 94% 29.71 in 10.0 mi Calm Calm - N/A   Light Drizzle
4:15 PM 66.2 °F 64.4 °F 94% 29.71 in 10.0 mi Calm Calm - N/A   Overcast
4:38 PM 68.0 °F 66.2 °F 94% 29.69 in 10.0 mi Calm Calm - N/A   Overcast
4:56 PM 69.8 °F 66.2 °F 88% 29.69 in 10.0 mi Calm Calm - N/A   Overcast
5:15 PM 69.8 °F 66.2 °F 88% 29.68 in 10.0 mi SSW 4.6 mph - N/A   Overcast
5:35 PM 69.8 °F 64.4 °F 83% 29.68 in 10.0 mi South 6.9 mph - N/A   Mostly Cloudy
5:59 PM 71.6 °F 64.4 °F 78% 29.68 in 10.0 mi South 3.5 mph - N/A   Mostly Cloudy
6:17 PM 69.8 °F 64.4 °F 83% 29.68 in 10.0 mi South 3.5 mph - N/A   Mostly Cloudy
6:35 PM 69.8 °F 64.4 °F 83% 29.68 in 10.0 mi South 3.5 mph - N/A   Scattered Clouds
6:36 PM 69.8 °F 64.4 °F 83% 29.68 in 10.0 mi South 3.5 mph - N/A   Scattered Clouds
6:55 PM 69.8 °F 64.4 °F 83% 29.67 in 10.0 mi South 4.6 mph - N/A   Scattered Clouds
7:15 PM 69.8 °F 64.4 °F 83% 29.67 in 10.0 mi SSE 4.6 mph - N/A   Clear
7:38 PM 69.8 °F 64.4 °F 83% 29.67 in 10.0 mi South 6.9 mph - N/A   Scattered Clouds
7:56 PM 68.0 °F 64.4 °F 88% 29.68 in 10.0 mi South 6.9 mph - N/A   Scattered Clouds
8:15 PM 68.0 °F 64.4 °F 88% 29.68 in 10.0 mi SSW 4.6 mph - N/A   Scattered Clouds
8:35 PM 66.2 °F 64.4 °F 94% 29.69 in 10.0 mi WSW 6.9 mph - N/A   Scattered Clouds
9:17 PM 66.2 °F 62.6 °F 88% 29.70 in 10.0 mi West 9.2 mph - N/A   Clear
9:35 PM 66.2 °F 60.8 °F 83% 29.70 in 10.0 mi West 8.1 mph - N/A   Clear
9:36 PM 66.2 °F 60.8 °F 83% 29.70 in 10.0 mi West 9.2 mph - N/A   Clear
9:55 PM 64.4 °F 57.2 °F 77% 29.71 in 10.0 mi West 8.1 mph 16.1 mph N/A   Clear
10:15 PM 62.6 °F 57.2 °F 82% 29.71 in 10.0 mi West 8.1 mph - N/A   Clear
10:38 PM 62.6 °F 57.2 °F 82% 29.72 in 10.0 mi West 8.1 mph - N/A   Clear
10:56 PM 62.6 °F 57.2 °F 82% 29.72 in 10.0 mi West 9.2 mph - N/A   Clear
11:15 PM 60.8 °F 57.2 °F 88% 29.72 in 10.0 mi WSW 5.8 mph - N/A   Clear
11:35 PM 60.8 °F 57.2 °F 88% 29.71 in 10.0 mi WSW 4.6 mph - N/A   Clear
11:59 PM 60.8 °F 57.2 °F 88% 29.71 in 10.0 mi West 5.8 mph - N/A   Clear